Weather History for KRYT - December, 2012

Change the Weather History Date:

Tuesday, December 18, 2012

  Actual Average (KHGR) Record (KHGR)
Temperature  
Mean Temperature 47 °F 33 °F  
Max Temperature 53 °F 40 °F - ()
Min Temperature 41 °F 26 °F - ()
Degree Days  
Heating Degree Days 18 32  
Month to date heating degree days 528  
Since 1 July heating degree days 1533  
Cooling Degree Days 0 0  
Month to date cooling degree days 0  
Year to date cooling degree days 969  
Moisture  
Dew Point 37 °F    
Average Humidity 68    
Maximum Humidity 93    
Minimum Humidity 52    
Precipitation  
Precipitation 0.01 in 0.09 in - ()
Month to date precipitation 1.79  
Year to date precipitation 38.19  
Sea Level Pressure  
Sea Level Pressure 29.60 in    
Wind  
Wind Speed 4 mph (WSW)    
Max Wind Speed 14 mph    
Max Gust Speed 32 mph    
Visibility 8 miles    
Events Fog , Rain    
T = Trace of Precipitation, MM = Missing Value Source: NWS Daily Summary

Daily Weather History Graph

Daily Weather History Graph

Search for Another Location

Airport or City:

Trip Planner

Search our weather history database for the weather conditions in past years. The results will help you decide how hot, cold, wet, or windy it might be!

Date:

Astronomy

Dec. 18, 2012 Rise Set
Actual Time 7:25 AM EST 4:47 PM EST
Civil Twilight 6:55 AM EST 5:17 PM EST
Nautical Twilight 6:21 AM EST 5:51 PM EST
Astronomical Twilight 5:48 AM EST 6:24 PM EST
Moon 11:05 AM EST (12/18) 11:10 PM EST (12/18)
Length of Visible Light 10h 22m
Length of Day
9h 21m
Waxing Crescent, 34% of the Moon is Illuminated
Dec 18
Waxing Crescent
Dec 20
First Quarter
Dec 28
Full
Jan 4
Last Quarter
Jan 11
New

Hourly Weather History & Observations

Time (EST) Temp. Windchill Dew Point Humidity Pressure Visibility Wind Dir Wind Speed Gust Speed Precip Events Conditions
12:07 AM 48.2 °F - 44.6 °F 87% 29.52 in 0.2 mi Calm Calm - 0.00 in Fog , Rain Light Rain
12:46 AM 48.2 °F - 44.6 °F 87% 29.50 in 0.8 mi Calm Calm - 0.00 in   Overcast
12:53 AM 48.0 °F - 45.0 °F 89% 29.52 in 1.8 mi Calm Calm - 0.00 in   Overcast
1:03 AM 48.2 °F - 44.6 °F 87% 29.51 in 0.5 mi Calm Calm - N/A Fog Fog
1:11 AM 48.2 °F - 44.6 °F 87% 29.51 in 1.0 mi Calm Calm - N/A   Overcast
2:00 AM 48.2 °F - 44.6 °F 87% 29.51 in 3.0 mi Calm Calm - N/A   Overcast
2:53 AM 50.0 °F - 46.0 °F 86% 29.52 in 1.5 mi WSW 5.8 mph - N/A   Overcast
3:24 AM 48.2 °F - 46.4 °F 93% 29.51 in 3.0 mi SSW 8.1 mph - N/A   Overcast
3:53 AM 48.9 °F - 46.0 °F 90% 29.51 in 8.0 mi SW 8.1 mph - N/A   Overcast
4:53 AM 50.0 °F - 44.1 °F 80% 29.52 in 10.0 mi SW 8.1 mph - N/A   Clear
5:53 AM 50.0 °F - 42.1 °F 74% 29.52 in 10.0 mi Variable 3.5 mph - N/A   Scattered Clouds
6:53 AM 52.0 °F - 41.0 °F 66% 29.53 in 10.0 mi SW 5.8 mph - N/A   Partly Cloudy
7:53 AM 52.0 °F - 39.9 °F 63% 29.53 in 10.0 mi SW 6.9 mph - N/A   Clear
8:53 AM 52.0 °F - 39.0 °F 61% 29.55 in 10.0 mi SW 9.2 mph - N/A   Clear
9:53 AM 53.1 °F - 39.0 °F 59% 29.56 in 10.0 mi SW 8.1 mph 19.6 mph N/A   Clear
10:53 AM 53.1 °F - 39.9 °F 61% 29.57 in 10.0 mi SW 12.7 mph 21.9 mph N/A   Mostly Cloudy
11:53 AM 53.1 °F - 39.0 °F 59% 29.57 in 10.0 mi Variable 6.9 mph - N/A   Overcast
12:53 PM 50.0 °F - 36.0 °F 59% 29.59 in 10.0 mi WNW 8.1 mph 20.7 mph 0.01 in   Mostly Cloudy
1:53 PM 48.9 °F - 32.0 °F 52% 29.60 in 10.0 mi West 13.8 mph 25.3 mph N/A   Partly Cloudy
2:53 PM 48.0 °F - 32.0 °F 54% 29.62 in 10.0 mi West 9.2 mph 32.2 mph N/A   Clear
3:53 PM 46.0 °F 39.9 °F 30.9 °F 56% 29.65 in 10.0 mi West 13.8 mph 27.6 mph N/A   Clear
4:53 PM 45.0 °F 39.3 °F 30.0 °F 56% 29.68 in 10.0 mi West 11.5 mph 19.6 mph N/A   Mostly Cloudy
5:53 PM 44.1 °F 38.6 °F 28.9 °F 55% 29.70 in 10.0 mi West 10.4 mph 19.6 mph N/A   Overcast
6:53 PM 42.1 °F 37.7 °F 27.0 °F 55% 29.72 in 10.0 mi Variable 6.9 mph 18.4 mph N/A   Clear
7:53 PM 42.1 °F 37.1 °F 27.0 °F 55% 29.75 in 10.0 mi NW 8.1 mph 20.7 mph N/A   Clear
8:53 PM 42.1 °F 39.2 °F 28.0 °F 58% 29.76 in 10.0 mi Variable 4.6 mph - N/A   Clear
9:53 PM 41.0 °F 37.1 °F 27.0 °F 57% 29.75 in 10.0 mi Variable 5.8 mph - N/A   Clear
10:53 PM 42.1 °F 39.2 °F 27.0 °F 55% 29.76 in 10.0 mi Variable 4.6 mph - N/A   Clear
11:53 PM 41.0 °F 37.1 °F 27.0 °F 57% 29.78 in 10.0 mi Variable 5.8 mph - N/A   Clear